格洛纳斯-716 COSMOS 1554 [GLONASS]

导读 | 星芒AI

COSMOS 1554 是一颗俄罗斯 GLONASS 卫星,于 1985 年 1 月 30 日由联盟号火箭发射。该卫星属于 GLONASS 导航系统,旨在为全球用户提供高精度的定位和导航服务。COSMOS 1554 位于地球静止轨道,运行周期约为 11 小时。它搭载了高精度原子钟和通信设备,支持俄罗斯及国际用户的导航需求。尽管已退役,该卫星在 GLONASS 系统的发展和验证中发挥了重要作用。

基本信息
目录编号:
14977
目录名称:
COSMOS 1554 (GLONASS)
国际标识:
1984-047A
轨道中心:
EARTH
卫星名称:
格洛纳斯-716
卫星全名:
格洛纳斯-716 COSMOS 1554 [GLONASS]
卫星状态:
在轨 (已飞行15141 天)
发射日期:
1984-05-19 UTC
国别 :
俄罗斯(独联体) (CIS)
星等 :
--
轨道信息
数据来源 国际轨道数据 AOE轨道数据
星历时间 2025-10-31T19:50:24+0800
18小时前
查看轨道信息
2025-10-30T01:00:00+0800
2天前
查看轨道信息
半长轴 25508.2km 25508.161km
偏心率 0.0018847 0.0018902
轨道倾角 66.464° 66.465°
近地点辐角 220.285° 220.253°
升交点赤经 335.627° 335.685°
平近点角 137.041° 207.714°
近地点 19081.989km 19081.81km
远地点 19178.141km 19178.242km
周期 675.740分钟 675.738分钟
每日圈数 2.130998 2.131003
详细信息
平衡模式:
三轴稳定
覆盖范围:
全球
运营商:
列舍特涅夫卫星信息系统
运营商所在国:
俄罗斯
制造商(研发单位):
列舍特涅夫卫星信息系统
制造商所在国:
俄罗斯
使用方式:
暂无
卫星简介
格洛纳斯(GLONASS )是苏联/俄罗斯研制卫星导航系统。标准配置为24颗卫星,其中18颗卫星就能保证该系统为俄罗斯境内用户提供全部服务。该卫星已退役。
2D轨道图
3D轨道图
轨道高度分析图
轨道倾角分析图
轨道综合分析图
查看轨道综合分析图